CAPE
1 1 0 0 0 0 0 0 0 0 0 0 0 0 0 0 0 0 0 0 0 0 0 0 0 0 0 0 0 0 0 0 0 0 0 0 0 10 0 11 0 0 0 0
1 1 1 0 0 0 0 0 0 0 0 0 0 0 0 0 0 0 0 0 0 0 0 0 1 1 0 0 0 0 0 0 0 0 0 0 0 0 3 15 14 1 0 0
2 1 0 0 0 0 0 0 0 0 0 0 0 0 0 0 0 1 1 3 6 9 15 12 13 8 7 1 0 0 0 0 0 0 0 0 0 9 20 0 6 2 6 6
2 2 0 0 0 0 0 0 0 0 0 0 0 0 1 4 3 4 3 5 5 3 11 5 5 8 5 8 16 0 6 1 4 0 0 0 0 0 0 0 0 3 5 12
2 3 0 0 0 0 0 0 1 3 0 4 2 1 2 5 4 1 3 4 5 9 11 11 15 10 25 22 29 32 26 12 3 0 0 0 0 0 0 0 0 0 0 0
2 2 1 0 0 0 0 1 2 3 2 10 11 14 4 4 10 5 2 4 8 1 0 4 1 20 32 44 45 62 29 17 23 3 0 0 0 0 0 0 0 0 0 0
1 1 2 2 0 0 6 6 7 4 1 7 12 15 28 4 1 4 12 2 4 0 20 15 23 29 33 40 32 15 28 41 22 9 14 0 0 0 7 0 0 0 0 0
2 1 3 3 0 0 13 12 2 1 2 8 6 1 4 0 7 7 6 9 18 24 13 12 11 11 9 15 10 31 15 39 14 14 12 0 2 25 5 6 0 28 0 0
3 1 4 2 0 0 12 12 5 3 8 1 16 3 6 2 1 11 3 6 12 17 18 10 1 11 1 2 2 19 16 34 36 11 9 5 57 0 0 0 41 0 0 0
2 1 2 2 0 0 8 4 7 7 7 2 5 7 2 13 7 3 12 6 10 2 0 0 4 5 0 1 3 9 41 41 1 18 17 5 1 0 0 38 24 2 2 0
1 0 1 0 0 0 3 3 8 8 2 1 1 0 4 5 8 3 12 10 5 0 0 0 3 0 0 1 17 10 0 11 12 13 12 2 1 0 0 0 1 1 1 1
1 0 2 0 0 0 0 3 1 0 1 0 0 0 0 2 8 4 16 16 13 3 0 0 0 0 0 0 1 1 6 27 14 19 3 4 2 5 2 0 5 9 3 8
0 1 1 0 0 0 0 3 5 1 0 0 2 14 0 0 0 6 10 0 4 10 2 1 0 0 0 0 0 0 0 1 1 0 1 1 5 6 25 16 9 20 4 9
1 1 0 0 0 0 0 1 0 0 0 2 8 0 2 0 0 0 1 9 3 0 1 7 2 0 3 0 0 0 1 1 0 0 2 5 8 6 11 14 31 19 15 15
0 0 0 0 0 0 0 1 0 0 0 3 3 0 0 0 0 0 0 2 12 16 6 6 3 7 1 6 3 0 3 1 0 1 5 6 7 6 4 2 3 2 1 1
0 0 0 0 0 0 2 1 0 0 0 2 15 3 0 0 0 0 5 0 0 2 22 13 17 20 10 0 0 2 8 11 4 4 11 4 7 12 15 2 8 8 4 3
0 0 0 0 0 2 4 0 0 0 1 0 3 21 12 0 0 0 0 0 0 1 2 8 5 23 17 0 2 3 20 17 12 12 6 5 5 7 17 11 10 6 4 4
0 0 0 0 0 0 0 0 0 0 1 1 0 28 33 2 28 12 0 4 11 1 7 10 9 17 7 0 24 29 25 18 14 12 11 9 9 13 9 11 11 3 4 5
0 0 0 0 0 1 0 0 0 1 1 2 0 18 17 15 22 0 0 0 10 0 19 6 3 0 2 24 20 13 17 13 28 18 12 3 0 3 6 3 6 5 4 4
0 0 2 0 1 0 0 0 1 4 3 1 0 0 1 18 21 23 3 0 1 1 1 10 10 12 14 9 17 9 8 15 19 13 15 10 4 1 2 5 3 3 5 5
0 0 4 0 0 1 2 0 0 0 0 0 0 0 0 7 42 55 38 1 4 1 4 7 15 16 6 6 12 12 16 22 19 25 30 25 23 14 7 5 7 1 0 1
0 0 0 0 1 2 0 10 5 7 1 13 0 5 0 6 65 33 99 31 16 17 0 7 0 20 9 12 16 17 17 15 23 22 32 25 25 29 24 12 9 6 6 0
0 0 4 18 86 1 9 17 25 34 5 0 0 0 0 2 34 149 78 6 24 0 17 0 13 18 19 16 25 27 19 14 13 28 22 20 22 24 25 24 17 12 7 10
0 28 1 0 3 7 23 5 1 0 0 0 0 0 142 188 109 19 23 11 2 8 0 2 20 28 29 31 24 37 34 19 12 10 28 25 14 16 11 9 8 8 15 13
0 24 0 1 20 11 21 0 0 2 0 0 0 7 21 5 0 0 0 1 2 0 11 20 29 14 21 26 40 41 46 26 23 14 17 31 16 4 1 1 2 13 22 16
0 4 34 32 22 25 35 12 15 3 0 0 0 0 2 6 5 8 7 0 1 6 0 0 3 17 13 4 0 6 63 34 44 26 24 26 28 0 0 1 0 1 2 3
25 13 20 26 48 82 77 10 1 0 0 24 0 0 1 0 0 1 0 2 0 0 0 0 0 9 13 5 8 49 83 73 67 40 21 18 20 4 5 0 0 0 1 2
CIN
-1 -1 -2 -3 0 0 0 0 0 0 0 0 0 0 0 0 0 0 0 0 0 0 0 0 -2 0 0 0 0 0 0 0 0 0 0 -1 -2 -15 -1 -9 0 0 0 0
0 -2 -2 0 0 0 0 0 0 0 0 0 0 0 0 0 0 0 0 0 0 0 0 0 -1 -3 -2 0 0 0 -1 0 0 0 0 0 0 0 -9 -8 -5 -2 0 0
-3 -3 -1 0 0 0 0 0 0 0 0 0 0 0 0 0 -1 -1 -1 -2 -2 -2 -2 -4 -1 -2 -5 -2 0 0 0 0 0 0 0 0 0 -5 -3 0 -8 -4 -9 -7
-3 -3 -1 0 0 0 0 0 0 0 0 0 -1 -1 -1 -1 -1 -2 -1 -2 -3 -4 -3 -4 -5 -6 -6 -3 -4 0 -1 -3 -4 0 0 0 0 0 0 0 0 -4 -6 -7
-2 -2 0 0 0 0 0 0 -1 -1 0 0 -1 -1 0 0 -1 -1 -2 0 -1 -1 0 -2 -1 -2 -2 -4 -7 -4 -1 -2 -4 -7 0 0 0 0 0 0 0 0 0 0
-2 -2 -6 -10 0 0 0 -1 -1 -1 0 -1 0 0 0 0 0 -1 0 0 -1 0 0 -1 -1 -2 -1 -3 -4 -2 -3 -3 -4 -5 0 0 0 0 0 0 0 0 0 0
-3 -4 -6 -14 0 0 -1 0 0 0 0 -1 0 0 0 -1 0 0 -1 0 0 0 -1 -1 -2 -3 -3 -3 -3 -8 -4 -2 -4 -5 -4 0 0 0 -4 0 0 0 0 0
-4 -6 -6 -12 0 0 -1 -1 -1 0 -1 0 -1 -1 0 0 0 -1 0 0 -1 -1 -1 -1 -2 -4 -5 -4 -6 -4 -25 -1 -3 -3 -5 0 -5 -54 -15 -62 0 -5 0 0
-5 -6 -5 -14 0 0 -1 0 0 0 0 -2 -1 0 0 0 -1 0 -1 -1 0 -1 0 0 0 -1 -2 -3 -6 -6 -10 -5 -2 -6 -4 -2 -34 0 0 -1 -20 0 0 0
-6 -6 -11 -10 0 0 -1 0 0 0 -1 -1 -1 0 0 0 0 0 0 -1 -1 0 0 0 0 0 0 0 -2 -3 -2 -2 -2 -5 -3 -3 -11 0 0 -6 -8 -1 -1 0
-6 -10 -14 0 0 0 0 0 0 0 -1 -2 0 -1 0 -1 0 -1 0 -1 0 -1 0 0 0 0 0 0 -2 -24 -1 -6 -1 -2 -2 -1 0 -1 -1 0 0 -1 -1 -1
-6 -8 -12 0 0 0 0 0 -2 -2 0 -1 0 0 0 -1 0 0 -1 0 0 0 0 0 0 0 0 0 0 -1 -4 -7 -6 -2 -6 -1 0 0 0 0 0 -1 -1 -1
-2 -4 -3 0 0 0 0 -1 0 -1 0 -1 -1 -3 0 0 0 -1 0 -3 -1 0 0 0 0 0 0 0 0 0 0 0 -2 0 0 0 0 -1 0 -1 -1 -1 -1 0
-1 -1 0 0 0 0 0 -1 0 -1 0 -1 -1 0 -3 0 0 0 -1 0 -1 0 0 0 0 0 0 0 0 0 0 0 0 0 0 0 0 0 0 -5 -1 -2 0 0
0 0 0 0 0 0 0 -1 0 0 0 -2 -1 0 0 0 0 0 0 -8 -2 -1 -1 0 0 0 0 0 0 0 0 0 0 0 0 0 0 0 0 0 0 0 0 0
0 0 0 0 0 0 -2 0 -1 0 0 0 -1 -8 0 0 0 0 -10 0 0 -1 0 0 0 0 0 0 0 0 0 0 0 0 0 0 0 0 0 0 0 0 0 0
0 0 0 0 0 -1 -1 -1 0 0 -1 0 -3 -1 -39 0 0 0 0 0 0 -1 0 -1 0 0 0 0 -7 0 0 0 0 0 -1 0 0 0 0 0 0 0 0 0
0 0 0 0 0 0 0 0 0 0 -1 -1 0 -2 -3 -5 -1 -4 0 -1 -1 0 0 -1 0 -1 -2 -1 -1 -1 -1 -1 -2 -1 -1 0 0 0 0 0 0 0 0 0
0 0 0 -1 -1 -1 -1 0 0 0 0 0 0 -8 -1 -27 -5 0 0 -1 -5 0 0 0 -1 0 -1 -1 -1 0 -2 -1 -1 -2 -2 -2 -1 -1 0 0 0 0 0 0
0 0 0 0 0 0 0 0 0 0 0 0 0 0 -14 -5 -3 -3 -2 0 -1 0 0 0 -1 0 -1 0 -1 -1 -2 -1 -1 -1 -1 -1 -1 -1 -1 0 0 0 0 0
0 0 -1 -1 0 -1 0 0 0 0 0 0 0 0 0 -18 -12 -25 -7 -4 -5 -1 -1 -1 0 0 -1 -1 -1 -1 -1 -1 -1 0 0 -1 -1 -1 -1 -1 0 0 0 0
0 0 0 0 0 -23 0 -6 -28 -14 -4 -6 0 -1 0 -6 -11 -1 -5 0 -1 -1 0 -1 0 -4 -1 -1 -1 -1 -1 -1 -1 -1 0 -1 -1 -1 -1 -1 -1 -1 -2 -1
0 0 0 -38 -37 -7 -1 -1 -2 -3 -2 0 0 0 0 0 -18 0 -1 -1 -1 0 -1 0 -3 -1 -1 -2 -1 -1 -1 -1 -1 -1 0 -1 -1 -2 -1 -1 -1 -2 -1 -1
0 -18 -1 0 -2 -3 -4 -5 -3 -1 0 0 0 0 -1 -2 0 -1 -1 -1 -2 -2 0 -3 -2 -1 -1 -1 -1 -2 -2 -1 -1 -1 -1 -1 -1 -1 -2 -2 -2 -1 -2 -2
0 -22 0 -1 -2 -3 -15 0 0 -1 0 0 0 -1 -1 -4 -1 0 0 -1 -1 0 -3 -3 -2 -1 -2 -1 -1 -1 -1 -1 -3 -2 -2 -1 -1 -1 -2 -2 -3 -2 -1 -2
0 -35 -11 -4 -2 -3 -12 -5 -3 -4 0 0 0 0 -3 -3 -4 -2 -2 0 -1 -4 0 -1 -1 -2 -3 -2 0 -2 -1 -1 -1 -3 -2 -2 -2 0 -1 -2 0 -2 -2 -1
-32 -6 -3 -1 -5 -3 -9 -15 -5 0 0 -3 0 0 -5 0 -4 -1 -1 0 0 0 0 0 0 -3 -3 -3 -5 -2 -1 -2 -1 -1 -2 -1 -2 -2 -2 0 0 -1 -1 -2
Wind_Speed
7 21 31 33 35 32 26 20 17 28 11 17 19 19 18 17 19 19 18 20 22 26 27 28 27 27 25 21 24 27 25 32 40 41 32 33 37 41 51 51 57 57 49 47
23 27 35 35 33 32 21 22 21 25 19 21 22 21 21 18 19 20 20 20 19 19 22 25 24 27 24 23 24 25 23 30 42 42 40 40 45 44 45 49 53 57 57 54
24 20 20 22 23 21 20 19 21 23 28 26 25 21 24 22 21 19 20 20 21 23 24 23 25 25 23 22 24 22 25 34 38 44 29 29 37 40 39 47 57 57 55 47
21 16 4 8 11 9 19 22 24 22 25 28 28 24 23 23 24 20 21 18 15 21 23 24 26 27 26 21 21 23 27 38 37 39 39 37 41 47 48 51 51 58 50 50
17 8 2 5 3 4 24 22 22 25 25 25 25 27 24 22 21 15 11 8 5 3 7 7 27 24 26 28 24 26 25 38 35 42 39 41 46 48 50 52 52 53 53 50
18 15 14 8 2 7 25 25 24 22 25 26 25 24 22 20 13 11 8 5 5 2 2 7 7 11 6 15 24 27 28 31 35 42 35 36 48 50 50 54 51 50 60 51
18 17 14 17 20 24 25 25 24 26 30 29 27 22 19 20 14 9 11 10 7 7 8 7 5 10 10 14 12 30 26 29 33 38 34 45 37 38 40 54 50 49 48 50
15 17 18 20 21 22 24 23 24 26 31 32 29 25 23 18 13 18 17 17 10 5 2 1 2 5 6 15 20 19 21 26 30 36 36 37 33 26 29 32 50 41 45 46
16 17 18 19 20 21 23 23 24 25 27 35 25 26 20 20 17 20 21 20 17 15 10 9 10 10 7 7 12 17 12 20 28 30 33 41 24 27 27 29 44 34 38 40
19 18 19 20 21 20 21 23 21 23 28 30 28 28 26 22 19 18 18 19 19 18 15 13 13 13 12 13 11 11 5 19 32 34 36 34 25 26 27 41 35 27 29 31
19 19 19 19 19 20 21 23 20 23 25 28 27 26 24 24 25 23 23 19 21 18 18 16 15 14 15 15 18 24 25 22 18 32 37 40 21 24 29 30 29 25 27 25
20 18 18 17 17 18 18 21 21 18 19 20 20 19 18 20 19 20 19 22 17 16 17 18 16 15 15 16 19 18 20 21 23 23 26 22 25 29 30 30 32 29 28 26
18 17 17 17 16 16 15 18 18 18 16 15 15 20 19 19 21 20 23 26 19 16 15 16 19 19 18 20 19 15 16 16 19 19 23 26 25 24 25 29 30 26 26 26
16 17 17 17 16 15 13 14 16 14 14 15 16 16 15 17 19 19 16 17 20 19 15 15 18 19 17 18 17 19 14 14 17 17 18 22 21 21 22 19 22 21 22 22
17 16 16 16 15 14 11 12 14 14 15 13 14 13 15 14 14 13 14 15 16 18 21 14 15 16 16 7 21 26 15 10 9 11 15 14 16 19 19 16 19 17 15 20
16 16 15 14 14 13 14 15 15 13 13 13 14 17 16 13 12 13 11 14 16 18 18 19 17 17 15 17 22 12 15 19 19 17 18 19 18 20 16 17 17 15 14 16
15 14 14 13 13 11 12 16 15 13 14 15 14 15 15 16 15 15 13 13 15 17 20 21 16 15 17 19 12 16 20 25 23 22 19 22 21 18 16 13 15 12 13 15
14 13 14 13 11 8 11 14 13 13 14 15 16 15 15 15 15 15 16 15 15 18 20 18 21 18 18 17 12 21 27 27 26 25 22 26 20 18 13 14 13 13 14 15
13 13 13 13 13 12 13 15 15 14 15 15 15 15 15 14 14 14 15 14 16 16 17 21 19 20 25 22 25 19 20 26 25 26 23 23 24 17 16 15 13 14 15 15
13 13 13 13 15 17 16 15 14 14 14 13 13 13 16 12 13 15 17 16 17 18 19 16 20 21 21 22 25 26 20 22 25 25 22 23 23 22 18 17 14 14 15 16
13 13 14 15 15 14 14 13 14 14 14 13 11 11 11 14 15 15 15 15 16 18 19 19 21 20 20 20 25 26 22 21 25 25 24 24 24 22 20 18 15 14 14 15
14 14 13 15 15 14 14 15 17 14 15 15 13 14 12 14 14 14 14 14 14 16 15 16 21 20 19 19 21 24 26 26 24 24 24 23 23 23 23 19 17 17 17 18
14 14 14 14 15 16 16 19 15 15 15 14 14 14 15 15 13 12 14 14 16 16 17 19 18 19 16 17 19 22 23 25 25 23 23 23 23 23 23 22 21 20 18 18
13 13 15 15 16 15 17 18 14 14 14 17 16 15 15 15 16 15 14 16 15 16 19 19 21 20 17 16 17 21 24 23 25 25 23 23 23 23 23 22 22 20 19 20
12 13 14 13 14 13 14 15 12 12 15 17 18 16 16 16 15 16 17 17 17 17 19 23 22 19 15 16 18 21 23 22 21 24 24 22 22 22 22 21 22 21 20 20
12 12 11 10 10 10 8 12 14 18 15 17 17 19 21 18 18 17 17 18 16 20 20 21 21 20 19 20 21 18 17 19 18 22 24 22 22 22 22 21 21 21 20 20
13 12 10 8 7 8 16 17 20 18 18 21 21 21 21 19 20 20 20 21 21 21 20 20 19 19 20 22 22 18 17 18 15 19 22 21 20 21 21 22 22 22 21 20
Wind_Direction
341 310 323 330 333 323 10 23 36 342 65 41 31 21 16 18 3 359 344 333 319 307 304 297 294 290 292 295 288 280 277 272 261 259 258 256 253 249 238 240 237 240 246 243
27 22 345 342 338 340 42 22 29 8 41 25 22 31 26 24 11 359 351 339 333 325 310 302 295 292 296 289 283 281 277 270 260 258 257 255 250 246 244 244 243 238 238 238
28 33 35 320 319 317 54 60 43 40 31 35 30 32 18 14 9 4 354 339 330 318 308 301 299 296 293 289 282 283 279 267 260 252 267 260 247 243 243 241 238 237 239 242
34 42 39 301 302 297 71 61 45 55 29 20 25 31 29 23 17 20 7 5 5 336 320 311 296 292 290 293 285 281 274 263 262 261 262 262 254 246 243 241 242 238 240 240
45 60 50 294 295 266 60 64 57 42 41 40 39 34 36 37 42 61 75 97 133 122 199 191 304 312 295 285 286 275 275 263 265 260 262 259 255 249 244 242 241 242 241 243
48 59 65 90 227 113 50 51 59 56 41 36 36 38 47 49 62 80 80 59 49 31 11 347 336 331 305 303 286 276 268 267 260 257 262 260 252 246 244 240 240 240 236 239
49 58 74 76 70 60 58 55 62 46 31 33 37 48 54 49 66 68 56 54 57 55 37 1 266 235 227 209 216 268 270 266 263 257 261 249 254 254 252 241 240 241 243 238
57 63 68 66 63 73 64 64 61 52 37 36 38 47 49 59 67 52 46 45 57 66 31 157 152 186 188 205 204 195 261 265 263 252 252 253 256 258 253 246 234 239 241 242
62 70 73 76 77 70 58 56 61 60 48 30 53 50 55 49 52 39 38 39 44 49 61 81 75 84 111 53 340 185 190 257 258 253 249 241 253 257 267 253 236 242 243 242
59 68 72 76 76 74 60 60 72 62 48 46 52 49 51 56 57 54 48 46 50 58 66 79 84 87 103 109 113 131 201 255 246 248 247 248 261 262 264 231 236 253 248 245
67 72 73 77 81 81 67 58 67 55 50 51 57 58 58 55 52 52 47 59 58 61 67 80 85 92 99 119 128 143 156 162 255 249 241 237 264 261 247 246 258 261 251 248
59 70 75 82 89 84 79 54 54 63 60 55 68 73 78 73 70 67 68 61 73 80 76 80 90 101 109 119 118 142 151 158 167 180 236 259 258 258 262 254 255 257 248 248
66 73 80 85 92 86 79 59 59 58 63 69 77 63 76 77 72 76 68 64 81 94 98 91 86 96 98 105 109 144 163 151 171 210 240 250 248 261 268 257 248 253 248 244
83 88 91 97 102 99 98 80 74 75 72 71 78 75 77 79 76 78 84 81 76 81 98 99 93 89 100 104 115 102 129 136 144 205 249 238 257 275 262 263 242 250 246 244
81 92 93 96 102 103 101 90 88 82 74 78 84 70 74 85 83 91 83 80 80 80 76 102 103 104 101 155 74 47 333 359 173 280 315 283 279 282 269 261 241 245 256 245
80 84 91 98 100 97 77 76 85 87 86 86 82 70 71 87 88 83 94 84 82 76 79 81 97 96 103 99 67 310 324 341 338 318 332 332 310 325 278 256 257 255 256 254
84 87 89 93 97 94 78 66 71 82 84 76 78 76 79 74 78 78 92 98 87 80 75 75 94 99 94 89 106 328 341 1 354 348 334 345 337 306 290 270 263 270 269 269
84 84 76 79 85 99 85 72 81 90 79 77 71 71 75 79 74 82 85 93 90 79 75 80 74 83 85 89 307 353 24 14 5 1 353 5 338 330 305 299 290 266 268 275
80 78 75 76 81 78 69 62 80 78 76 73 74 69 67 76 81 89 90 101 84 86 79 70 73 73 49 54 346 323 329 4 354 3 350 352 352 334 332 322 300 273 275 282
73 73 75 76 68 55 68 77 81 83 87 96 78 76 58 75 88 71 73 79 71 64 64 77 67 62 60 54 40 33 322 336 352 350 341 345 350 347 335 333 317 301 294 288
77 74 70 66 71 82 83 83 79 81 78 88 76 76 65 66 56 56 72 70 68 54 52 53 47 50 54 52 31 27 45 6 358 6 354 350 350 345 339 335 327 323 315 311
54 50 56 62 67 74 74 60 57 70 64 55 55 45 56 58 55 58 56 61 70 59 66 57 36 39 43 42 34 24 11 1 340 347 349 343 341 342 344 335 329 329 325 333
55 62 61 65 67 60 52 36 41 39 42 45 38 34 38 46 56 50 40 46 39 40 34 29 33 41 45 35 28 18 12 359 349 336 339 335 338 339 339 338 343 339 334 331
62 64 50 54 49 51 40 32 36 39 35 28 29 31 31 32 28 29 32 26 22 21 14 20 17 28 38 37 25 10 358 0 348 344 333 333 329 334 338 338 335 331 331 337
70 64 52 54 42 38 33 33 44 49 31 24 21 24 24 21 21 17 18 13 12 13 10 1 9 20 36 29 18 1 349 349 351 344 341 336 333 330 331 332 341 341 337 340
76 71 64 62 48 46 45 35 28 22 23 18 20 15 13 13 13 11 13 5 7 6 7 3 5 21 31 17 8 10 11 3 358 350 344 339 338 334 331 330 329 335 335 331
63 65 73 62 49 37 21 25 16 19 8 4 9 7 8 9 7 5 4 1 1 357 8 8 19 23 19 14 9 14 9 6 13 3 352 346 342 338 337 330 328 323 327 330